Location: Dal�� Lhota
(48.7500°N, 14.0167°E)
Time: 22:52:15
(UTC+00:00)

ERS-1 Rocket - Pass Details

Date: 24 September 2020
Orbit: 753 x 757 km, 98.5° (Epoch: 25 October)

Event Time Altitude Azimuth Distance (km) Brightness Sun altitude
Exits shadow 20:17:40 35° 6° (N) 1,218 4.2 -31.4°
Drops below altitude 10° 20:20:38 10° 352° (N) 2,297 6.0 -31.7°
Sets 20:22:58 0° 349° (N) 3,227 7.0 -32.0°
